W5IM Weather Reports


Display with metric or nautical units.
time (UTC)temp
F
wind
direction
speed
MPH
gust
MPH
rain 1hr
in
rain 24hr
in
rain mn
in
humidity
%
barometer
mb
20260505003510 79 177 9.0 15.0 0.00 0.00 0.00 71 1008.8
20260505003010 79 170 8.0 15.0 0.00 0.00 0.00 70 1008.8
20260505002510 79 182 7.0 12.0 0.00 0.00 0.00 70 1008.9
20260505002010 79 176 8.0 14.0 0.00 0.00 0.00 70 1008.7
20260505001515 79 169 10.0 16.0 0.00 0.00 0.00 70 1008.7
20260505001010 80 178 8.0 15.0 0.00 0.00 0.00 69 1008.7
20260505000510 80 161 8.0 14.0 0.00 0.00 0.00 69 1008.7
20260504235511 80 181 7.0 15.0 0.00 0.00 0.00 68 1008.8
20260504235010 80 165 7.0 14.0 0.00 0.00 0.00 67 1008.9
20260504234510 81 172 8.0 14.0 0.00 0.00 0.00 67 1009.0
20260504233510 81 177 9.0 17.0 0.00 0.00 0.00 66 1009.1
20260504232510 81 159 9.0 15.0 0.00 0.00 0.00 65 1009.3
20260504231509 81 148 12.0 17.0 0.00 0.00 0.00 65 1009.2
20260504231010 81 157 8.0 14.0 0.00 0.00 0.00 65 1009.3
20260504230510 81 181 9.0 15.0 0.00 0.00 0.00 65 1009.4
20260504230009 81 161 10.0 16.0 0.00 0.00 0.00 65 1009.4
20260504225509 81 150 12.0 18.0 0.00 0.00 0.00 65 1009.3
20260504225010 82 161 8.0 16.0 0.00 0.00 0.00 64 1009.3
20260504223511 82 163 11.0 18.0 0.00 0.00 0.00 64 1009.4
20260504223010 83 151 12.0 18.0 0.00 0.00 0.00 62 1009.5
20260504222011 82 169 11.0 16.0 0.00 0.00 0.00 63 1009.7
20260504221509 82 157 9.0 15.0 0.00 0.00 0.00 63 1009.8
20260504221009 82 160 10.0 16.0 0.00 0.00 0.00 63 1009.7
20260504220510 82 185 7.0 12.0 0.00 0.00 0.00 62 1009.8
20260504220009 83 184 7.0 13.0 0.00 0.00 0.00 62 1009.8
20260504213510 82 179 7.0 13.0 0.00 0.00 0.00 63 1010.0
20260504213010 82 163 6.0 13.0 0.00 0.00 0.00 63 1010.2
20260504212010 82 190 8.0 14.0 0.00 0.00 0.00 62 1010.3
20260504211510 82 193 7.0 10.0 0.00 0.00 0.00 63 1010.3
20260504211010 82 179 8.0 12.0 0.00 0.00 0.00 64 1010.5
20260504210510 81 161 7.0 14.0 0.00 0.00 0.00 65 1010.5
20260504210010 81 187 5.0 12.0 0.00 0.00 0.00 64 1010.8
20260504205509 81 185 7.0 12.0 0.00 0.00 0.00 64 1010.7
20260504204509 81 178 6.0 12.0 0.00 0.00 0.00 65 1010.9
20260504203510 81 202 7.0 10.0 0.00 0.00 0.00 64 1011.0
20260504203011 81 175 6.0 14.0 0.00 0.00 0.00 64 1011.1
20260504202511 81 210 9.0 13.0 0.00 0.00 0.00 63 1011.3
20260504202010 81 188 8.0 14.0 0.00 0.00 0.00 62 1011.1
20260504201510 82 181 6.0 10.0 0.00 0.00 0.00 63 1011.0
20260504201010 81 182 7.0 12.0 0.00 0.00 0.00 63 1011.1
20260504200510 81 199 9.0 13.0 0.00 0.00 0.00 62 1011.1
20260504195510 81 188 6.0 12.0 0.00 0.00 0.00 65 1011.4
20260504195010 80 181 6.0 15.0 0.00 0.00 0.00 66 1011.4
20260504194509 80 153 9.0 15.0 0.00 0.00 0.00 65 1011.4
20260504194010 81 153 9.0 13.0 0.00 0.00 0.00 65 1011.4
20260504193511 81 159 9.0 16.0 0.00 0.00 0.00 64 1011.6
20260504193011 81 159 9.0 15.0 0.00 0.00 0.00 65 1011.7
20260504192510 81 174 10.0 15.0 0.00 0.00 0.00 65 1011.8
20260504192010 81 187 7.0 15.0 0.00 0.00 0.00 64 1011.9
20260504190511 81 164 9.0 13.0 0.00 0.00 0.00 63 1012.0
20260504185510 81 187 9.0 15.0 0.00 0.00 0.00 62 1011.9
20260504185010 82 178 7.0 15.0 0.00 0.00 0.00 61 1011.9
20260504184510 82 186 9.0 14.0 0.00 0.00 0.00 61 1012.0
20260504184010 82 164 8.0 13.0 0.00 0.00 0.00 62 1012.0
20260504183510 81 186 7.0 10.0 0.00 0.00 0.00 62 1012.2
20260504183010 81 197 8.0 14.0 0.00 0.00 0.00 61 1012.1
20260504182510 81 196 8.0 12.0 0.00 0.00 0.00 60 1012.2
20260504182010 81 195 6.0 10.0 0.00 0.00 0.00 62 1012.3
20260504181509 81 201 11.0 15.0 0.00 0.00 0.00 60 1012.5
20260504181011 81 200 9.0 13.0 0.00 0.00 0.00 60 1012.6
20260504180510 82 194 8.0 12.0 0.00 0.00 0.00 59 1012.6
20260504180010 82 178 9.0 14.0 0.00 0.00 0.00 59 1012.5
20260504175509 82 200 9.0 15.0 0.00 0.00 0.00 58 1012.5
20260504175010 81 212 7.0 13.0 0.00 0.00 0.00 60 1012.6
20260504174509 82 165 7.0 13.0 0.00 0.00 0.00 59 1012.6
20260504173510 81 188 11.0 15.0 0.00 0.00 0.00 61 1012.8
20260504173010 81 209 12.0 15.0 0.00 0.00 0.00 61 1012.8
20260504172510 81 194 9.0 14.0 0.00 0.00 0.00 62 1012.9
20260504172009 80 191 10.0 14.0 0.00 0.00 0.00 63 1013.0
20260504171510 81 202 10.0 14.0 0.00 0.00 0.00 62 1013.1
20260504171010 81 195 12.0 18.0 0.00 0.00 0.00 61 1012.9
20260504151010 78 209 11.0 20.0 0.00 0.00 0.00 66 1013.9
20260504150510 78 169 7.0 13.0 0.00 0.00 0.00 70 1013.9
20260504140509 73 172 7.0 12.0 0.00 0.00 0.00 78 1013.9
20260504130510 68 173 6.0 8.0 0.00 0.00 0.00 88 1013.6
20260504100510 64 170 5.0 7.0 0.00 0.00 0.00 88 1014.0
20260504081009 65 163 5.0 7.0 0.00 0.00 0.00 83 1014.7
20260504080509 66 160 6.0 7.0 0.00 0.00 0.00 83 1014.8
20260504050510 67 161 6.0 9.0 0.00 0.00 0.00 78 1017.0
20260504050009 67 160 6.0 8.0 0.00 0.00 0.00 78 1017.0
20260504045508 67 163 6.0 7.0 0.00 0.00 0.00 78 1017.1
20260504045009 67 159 6.0 8.0 0.00 0.00 0.00 78 1017.1
20260504044508 67 159 6.0 7.0 0.00 0.00 0.00 78 1017.1
20260504044009 67 158 5.0 7.0 0.00 0.00 0.00 77 1017.2
20260504043509 67 161 5.0 7.0 0.00 0.00 0.00 76 1017.3
20260504043009 68 162 6.0 7.0 0.00 0.00 0.00 76 1017.5
20260504042508 68 164 5.0 7.0 0.00 0.00 0.00 76 1017.7
20260504041509 68 170 5.0 6.0 0.00 0.00 0.00 75 1017.8
20260504041009 68 168 5.0 6.0 0.00 0.00 0.00 74 1017.9
20260504040510 69 170 3.0 6.0 0.00 0.00 0.00 74 1017.9
20260504040009 69 168 5.0 7.0 0.00 0.00 0.00 73 1017.8
20260504035508 69 161 6.0 8.0 0.00 0.00 0.00 73 1017.8
20260504035009 69 164 5.0 7.0 0.00 0.00 0.00 73 1017.7
20260504034509 69 180 4.0 7.0 0.00 0.00 0.00 73 1017.7
20260504034009 69 169 5.0 9.0 0.00 0.00 0.00 73 1017.6
20260504033509 69 169 6.0 8.0 0.00 0.00 0.00 73 1017.5
20260504033010 69 165 6.0 9.0 0.00 0.00 0.00 73 1017.5
20260504032509 69 167 6.0 9.0 0.00 0.00 0.00 73 1017.5
20260504032009 69 164 5.0 8.0 0.00 0.00 0.00 73 1017.5
20260504031509 69 163 6.0 8.0 0.00 0.00 0.00 73 1017.4
20260504031009 69 158 7.0 8.0 0.00 0.00 0.00 73 1017.4
20260504030509 69 160 6.0 7.0 0.00 0.00 0.00 73 1017.5
20260504025008 69 157 6.0 8.0 0.00 0.00 0.00 72 1017.4
20260504024509 70 155 6.0 9.0 0.00 0.00 0.00 71 1017.4
20260504024009 70 153 7.0 9.0 0.00 0.00 0.00 71 1017.3
20260504023009 70 153 7.0 10.0 0.00 0.00 0.00 70 1017.4
20260504022509 70 153 8.0 10.0 0.00 0.00 0.00 70 1017.4
20260504022009 70 148 8.0 12.0 0.00 0.00 0.00 69 1017.3
20260504021509 71 150 9.0 12.0 0.00 0.00 0.00 69 1017.3
20260504021009 71 155 8.0 12.0 0.00 0.00 0.00 68 1017.2
20260504020509 71 152 8.0 12.0 0.00 0.00 0.00 69 1017.2
20260504020009 71 150 7.0 12.0 0.00 0.00 0.00 68 1017.3
20260504015508 71 150 8.0 14.0 0.00 0.00 0.00 68 1017.2
20260504015009 71 151 9.0 12.0 0.00 0.00 0.00 68 1017.1
20260504014009 71 147 7.0 10.0 0.00 0.00 0.00 67 1016.9
20260504013509 72 151 10.0 13.0 0.00 0.00 0.00 66 1016.9
20260504013008 72 152 9.0 13.0 0.00 0.00 0.00 65 1016.8
20260504012508 72 150 9.0 13.0 0.00 0.00 0.00 64 1016.7
20260504012009 72 150 9.0 14.0 0.00 0.00 0.00 63 1016.7
20260504011508 73 149 10.0 14.0 0.00 0.00 0.00 63 1016.7
20260504011009 73 145 12.0 15.0 0.00 0.00 0.00 62 1016.7
20260504010009 73 147 10.0 16.0 0.00 0.00 0.00 61 1016.7
20260504005509 74 143 12.0 16.0 0.00 0.00 0.00 60 1016.5
20260504005009 74 144 9.0 17.0 0.00 0.00 0.00 59 1016.5
20260504004510 74 148 12.0 16.0 0.00 0.00 0.00 58 1016.5